Location: Westminster
(33.3626°N, 96.4619°W)
Time: 14:31:50
(UTC+00:00)

Cosmos 1763 Rocket - Pass Details

Date: 12 July 2022
Orbit: 732 x 780 km, 74.0° (Epoch: 18 August)

Event Time Altitude Azimuth Distance (km) Brightness Sun altitude
Exits shadow 06:00:54 37° 356° (N) 1,182 4.8 -34.2°
Drops below altitude 10° 06:04:10 10° 10° (N) 2,325 6.7 -34.3°
Sets 06:06:35 0° 14° (NNE) 3,260 7.7 -34.4°
